STARLINK-1370 (45698 NORAD) Tracking and Keplerian Element Data

This shows tracking and keplerian element data for the satellite.

Feedback or suggestion? Click here.




ElementValue
Catalog45698
NameSTARLINK-1370
Epoch Orbit182
Epoch Day191.91670139
Epoch Year2020
RAAN353.5279
Inclination52.9994
Eccentricity0.0001517
Argument of Perigee69.3909
Mean Anonmoly128.3044
Mean Motion15.62718806
Decay Rate0.00058493
L11 45698U 20035AT 20191.91670139 .00058493 00000-0 64088-3 0 9999
L22 45698 52.9994 353.5279 0001517 69.3909 128.3044 15.62718806 1823

Live tracking and technical data element details for STARLINK-1370 (NORAD 45698). STARLINK-1370 can be tracked NOW for your location showing map with azimuth and elevation plus other details from your city location.

Track the satellite on the map from your city or location and see movement details for azimuth, elevation, latitude, longitude, range, height, and movement on the map or in text.







IsCatalogInMostPopularTable: catalog: 45698, numindb: 5
Update: records affected: 1



GetName: 45698 STARLINK-1370

Hit Count: updated at: Fri, 10 Jul 2020 15:21:25 GMT